Content
SEND FEEDBACK

Daily
Averages
Monthly
Summary
United States of America

CONCORD, VIRGINIA


Home > North America > United States > Virginia
Elevation: 65 feet     Latitude: 37 17N     Longitude: 078 58W

WEATHER
 
SELECT A DAY
Number of Records: 211,763;   Date Range: 1/1/95 - 9/18/14
 
SHARE

PRINT THIS DATA

[ ← Previous Day ]
WEATHER ALMANAC - JANUARY 3, 2013
[ Next Day → ]
[ °C ]   °F
Weather ElementAverageHighLow
Temperature33.8 °F39.9 °F (2:54 pm)28 °F (11:54 pm)
Dewpoint21.9 °F28.9 °F (12:54 am)17.1 °F (7:54 am)
Humidity62.3 %82 % (12:54 am)48 % (7:54 pm)
Barometer30.21 in30.26 in (10:54 am)30.17 in (1:39 am)
Wind Speed4.7 mph9.2 mph (3:36 am)
Weather ElementAverage
Visibility10 mi
Wind DirectionENE (78.1 °)

Weather ElementTotal
Precipitation---
Heating Degree Days31.1 (Base 65)
Averaged from 31 records on January 3, 2013
WEATHER CONDITIONS BREAKOUT
WIND DIRECTION BREAKOUT
WEATHER BY HOUR - JANUARY 3, 2013
[ °C ]   °F
Local TimeTemperatureDewpointHumidityBarometerVisibilityWind DirectionWind SpeedGust SpeedPrecipitationEventsConditions
12:54 AM34.0 °F28.9 °F82 %30.19 in10.0 miNNE (20°)5.8 mphMostly Cloudy
1:39 AM33.8 °F28.4 °F81 %30.17 in10.0 miNNE (20°)6.9 mphOvercast
1:54 AM34.0 °F28.9 °F82 %30.19 in10.0 miNNE (30°)6.9 mphOvercast
2:54 AM34.0 °F28.0 °F79 %30.19 in10.0 miNNE (30°)5.8 mphOvercast
3:36 AM33.8 °F26.6 °F75 %30.18 in10.0 miNNE (20°)9.2 mphOvercast
3:54 AM33.1 °F26.1 °F75 %30.20 in10.0 miNE (40°)5.8 mphOvercast
4:54 AM32.0 °F23.0 °F69 %30.19 in10.0 miNNE (20°)5.8 mphOvercast
5:05 AM32.0 °F21.2 °F64 %30.17 in10.0 miNNE (20°)6.9 mphOvercast
5:54 AM32.0 °F19.9 °F61 %30.20 in10.0 miNNE (30°)6.9 mphOvercast
6:54 AM32.0 °F18.0 °F56 %30.22 in10.0 miNE (40°)5.8 mphOvercast
7:09 AM32.0 °F17.6 °F55 %30.21 in10.0 miNNE (30°)5.8 mphOvercast
7:54 AM32.0 °F17.1 °F54 %30.25 in10.0 miNNE (20°)5.8 mphOvercast
8:01 AM32.0 °F17.6 °F55 %30.22 in10.0 miNE (40°)6.9 mphOvercast
8:36 AM32.0 °F17.6 °F55 %30.22 in10.0 miNNE (20°)6.9 mphOvercast
8:54 AM32.0 °F18.0 °F56 %30.25 in10.0 miNE (50°)4.6 mphOvercast
9:16 AM32.0 °F17.6 °F55 %30.22 in10.0 miENE (60°)3.5 mphOvercast
9:54 AM33.1 °F19.0 °F56 %30.25 in10.0 miCalmOvercast
10:54 AM34.0 °F21.9 °F61 %30.26 in10.0 miCalmOvercast
11:54 AM35.1 °F23.0 °F61 %30.21 in10.0 miSouth (170°)3.5 mphOvercast
12:54 PM37.0 °F24.1 °F59 %30.18 in10.0 miWSW (240°)4.6 mphClear
1:54 PM37.9 °F24.1 °F57 %30.17 in10.0 miSouth (190°)4.6 mphClear
2:54 PM39.9 °F21.9 °F49 %30.17 in10.0 miSW (220°)4.6 mphClear
3:54 PM39.9 °F24.1 °F53 %30.18 in10.0 miSouth (190°)5.8 mphClear
4:54 PM36.0 °F25.0 °F64 %30.20 in10.0 miCalmClear
5:54 PM33.1 °F25.0 °F72 %30.21 in10.0 miCalmClear
6:54 PM32.0 °F24.1 °F73 %30.23 in10.0 miCalmClear
7:54 PM36.0 °F18.0 °F48 %30.23 in10.0 miVariable4.6 mphClear
8:54 PM35.1 °F18.0 °F50 %30.23 in10.0 miWSW (250°)5.8 mphClear
9:54 PM35.1 °F18.0 °F50 %30.23 in10.0 miWSW (250°)5.8 mphClear
10:54 PM33.1 °F18.0 °F54 %30.24 in10.0 miSW (230°)4.6 mphClear
11:54 PM28.0 °F19.0 °F69 %30.24 in10.0 miSouth (190°)3.5 mphClear
Hourly data recorded from KLYH, located miles away from Concord, Virginia







STORIES FROM OUR PARTNERS